This is the latest recevied weather packets stored in our database for station/object N8TWM-13. If no packets are shown the sender has not sent any weather packets the latest 10 day(s).
| Time | Temp. | Humidity | Pressure | Rain* | Wind** | Luminosity | Snow |
|---|---|---|---|---|---|---|---|
| 1777938998 | 20° C | 59% | 1005 hPa | 0 mm | - | 19 W/m² | - |
| 1777938695 | 20.56° C | 58% | 1004.8 hPa | 0 mm | - | 28 W/m² | - |
| 1777938393 | 20.56° C | 57% | 1004.8 hPa | 0 mm | - | 28 W/m² | - |
| 1777938090 | 21.11° C | 56% | 1004.8 hPa | 0 mm | - | 29 W/m² | - |
| 1777937785 | 21.11° C | 55% | 1004.5 hPa | 0 mm | - | 34 W/m² | - |
| 1777937481 | 21.11° C | 55% | 1004.6 hPa | 0 mm | - | 35 W/m² | - |
| 1777937180 | 21.11° C | 54% | 1004.7 hPa | 0 mm | - | 38 W/m² | - |
| 1777936876 | 21.67° C | 53% | 1004.5 hPa | 0 mm | - | 44 W/m² | - |
| 1777936573 | 21.67° C | 52% | 1004.4 hPa | 0 mm | - | 54 W/m² | - |
| 1777936269 | 21.67° C | 53% | 1004.4 hPa | 0 mm | - | 54 W/m² | - |
| 1777935965 | 21.67° C | 53% | 1004.6 hPa | 0 mm | - | 75 W/m² | - |
| 1777935664 | 21.67° C | 53% | 1004.7 hPa | 0 mm | - | 58 W/m² | - |
| 1777935361 | 22.22° C | 52% | 1004.8 hPa | 0 mm | - | 138 W/m² | - |
| 1777935058 | 21.67° C | 54% | 1004.8 hPa | 0 mm | - | 148 W/m² | - |
| 1777934755 | 21.67° C | 53% | 1005 hPa | 0 mm | - | 72 W/m² | - |
| 1777934452 | 21.67° C | 53% | 1004.7 hPa | 0 mm | - | 81 W/m² | - |
| 1777934149 | 21.67° C | 54% | 1005 hPa | 0 mm | - | 74 W/m² | - |
| 1777933844 | 21.67° C | 55% | 1005.1 hPa | 0 mm | - | 62 W/m² | - |
| 1777933542 | 21.67° C | 55% | 1005 hPa | 0 mm | - | 79 W/m² | - |
| 1777933239 | 22.22° C | 54% | 1005 hPa | 0 mm | - | 197 W/m² | - |
| 1777932936 | 22.22° C | 56% | 1004.9 hPa | 0 mm | - | 249 W/m² | - |
| 1777932633 | 21.67° C | 56% | 1004.9 hPa | 0 mm | - | 156 W/m² | - |
| 1777932329 | 21.67° C | 56% | 1005.2 hPa | 0 mm | - | 151 W/m² | - |
| 1777932026 | 21.67° C | 57% | 1004.9 hPa | 0 mm | - | 115 W/m² | - |
| 1777931723 | 22.22° C | 56% | 1004.9 hPa | 0 mm | - | 90 W/m² | - |
* Rain latest hour (hover to see other rain measurements)
** Current wind speed in m/s (hover to see current wind gust speed)